Regional Weather Roundup
Issued by NWS

Home | Current Version | Previous Version | Text Only | Print | Product List | Glossary On
Versions: 1 2 3 4 5 6 7 8 9 10 11 12 13 14 15 16 17 18 19 20 21 22 23 24 25 26 27 28 29 30 31 32 33 34 35 36 37 38 39 40 41 42 43 44 45 46 47 48 49 50
000
ASMX46 KSGX 280010
RWRMX

MEXICAN WEATHER ROUNDUP
NATIONAL WEATHER SERVICE SAN DIEGO CA
500 PM PDT WED AUG 27 2014

BAJA CALIFORNIA

CITY           SKY/WX    TMP DP  RH WIND       PRES   REMARKS
ENSENADA NW      N/A     82  32  16 SW6       29.93S
LA PAZ         MOSUNNY   93  66  40 N8        29.85  HX  96
LORETO         MOSUNNY   91  75  59 NE12      29.82S HX 102
MEXICALI       SUNNY    104  45  13 SE3       29.84  HX 100
S.J. DEL CABO  PTSUNNY   88  70  55 SE12      29.85F
TIJUANA        SUNNY     84  50  30 W7        30.01S

NORTHWESTERN MEXICO

CITY           SKY/WX    TMP DP  RH WIND       PRES   REMARKS
CHIHUAHUA      PTSUNNY   84  54  34 N10       30.11
CULIACAN       PTSUNNY   95  79  59 NW9       29.80  HX 112
GUAYMAS        MOSUNNY  100  77  47 SW14      29.74  HX 116
HERMOSILLO     MOSUNNY  106  63  24 SW9       29.84  HX 108
JUAREZ         PTSUNNY   86  63  45 S9        30.06
LOS MOCHIS     MOSUNNY  N/A N/A N/A NW21      29.79S
OBREGON        SUNNY     99  72  41 W7        29.76  HX 107

NORTHEASTERN MEXICO

CITY           SKY/WX    TMP DP  RH WIND       PRES   REMARKS
MATAMOROS      SUNNY     91  75  59 N18       29.86  HX 102
MONCLOVA       MOSUNNY   91  61  35 NE9       29.91
MONTERREY      PTSUNNY   91  61  35 N3        29.90R
NUEVO LAREDO   MOSUNNY  102  64  29 NE9       29.86  HX 105
PIEDRAS NEGRAS MOSUNNY   97  73  46 E9        29.90F HX 107
REYNOSA        MOSUNNY   93  61  33 N12       29.84
SALTILLO       SUNNY     82  64  54 NE17      30.14S
TORREON        MOSUNNY   93  41  16 CALM      30.04F
VICTORIA       MOSUNNY   97  57  26 NE12      29.86  HX  95

WESTERN MEXICO

CITY           SKY/WX    TMP DP  RH WIND       PRES   REMARKS
AGUASCALIENTES MOSUNNY   82  41  23 NE6       30.20
COLIMA         PTSUNNY   81  75  83 W12       29.93R
DURANGO        MOSUNNY   82  43  24 N8        30.19F
GUADALAJARA    MOSUNNY   82  52  34 NE10      30.10
MANZANILLO     MOSUNNY   90  77  66 S8        29.75F HX 102
MAZATLAN       PTSUNNY   86  77  74 W14       29.75F HX  97
PTO. VALLARTA  PTSUNNY   90  79  70 SE7       29.79S HX 105
TEPIC          MOSUNNY   79  70  73 CALM      30.04S
URUAPAN        PTSUNNY   73  61  64 CALM      30.12F
ZACATECAS      PTSUNNY   79  43  27 NE12      30.25S

CENTRAL MEXICO

CITY           SKY/WX    TMP DP  RH WIND       PRES   REMARKS
CUERNAVACA     MOSUNNY   82  46  28 SE5       30.04R
LEON           MOSUNNY   81  46  30 NE5       30.21F
MEXICO CITY    PTSUNNY   75  46  35 N9        30.26R
MORELIA        MOSUNNY   79  52  38 N6        30.16
POZA RICA      PTSUNNY   93  72  49 E12       29.90F HX 100
PUEBLA         PTSUNNY   73  54  49 S9        30.27S
QUERETARO      PTSUNNY   79  50  36 NE17      30.24S
S. LUIS POTOSI MOSUNNY   81  43  26 E21       30.20S
TAMPICO        MOSUNNY   88  73  62 SE10      29.86S HX  96
TOLUCA         PTSUNNY   68  41  37 NE9       30.33S
VERACRUZ       PTCLDY    86  73  66 E8        29.88R

SOUTHERN MEXICO

CITY           SKY/WX    TMP DP  RH WIND       PRES   REMARKS
ACAPULCO       MOSUNNY   88  79  74 W8        29.79S HX 102
B. DE HUATULCO PTCLDY    84  75  74 CALM      29.87
MINATITLAN     MOCLDY    86  73  66 N7        29.86
OAXACA         MOCLDY    79  50  36 E8        30.12R
PTO. ESCONDIDO PTCLDY    86  75  70 SW12      30.00S HX  95
TAPACHULA      MOCLDY    79  77  94 CALM      29.86R
TUX. GUTIERREZ MOCLDY    84  70  61 N7G20     29.87R
VILLAHERMOSA   MOCLDY    88  73  62 N5        29.88R HX  96
ZIHUATANEJO    PTSUNNY   90  75  62 W12       29.78R HX 100

YUCATAN PENINSULA

CITY           SKY/WX    TMP DP  RH WIND       PRES   REMARKS
CAMPECHE       MOCLDY    86  77  74 NW12G23   29.82S HX  97
CANCUN         MOCLDY    84  75  74 E2        29.85S
CHETUMAL       MOCLDY    88  77  70 E6        29.80R HX 100
C. DEL CARMEN  PTCLDY    88  77  70 NW12      29.84  HX 100
COZUMEL        MOCLDY    84  79  84 W9        29.86R HX  96
MERIDA         MOCLDY    86  72  62 N7        29.85R

$$




USA.gov is the U.S. government's official web portal to all federal, state and local government web resources and services.